When you browse on this site, cookies collect data to enhance your experience and personalize the content and advertising you see.
Visit our Privacy Policy to learn more. By continuing to use the site, you agree to this use of cookies and data.
EN

Hourly Weather Falticeni

Today, 8 August, Saturday

Time Temperature Precipitation Wind Pressure Humidity
00:00 +20°C° 0 mm 2 mps 734 mmHg 76%
01:00 +19°C° 0 mm 2 mps 734 mmHg 78%
02:00 +19°C° 0 mm 2 mps 734 mmHg 82%
03:00 +18°C° 0.1 mm 2 mps 734 mmHg 83%
04:00 +18°C° 0.1 mm 2 mps 734 mmHg 85%
05:00 +18°C° 0.1 mm 2 mps 734 mmHg 87%
06:00 +19°C° 0 mm 2 mps 734 mmHg 84%
07:00 +21°C° 0 mm 2 mps 734 mmHg 82%
08:00 +24°C° 0 mm 2 mps 734 mmHg 79%
09:00 +25°C° 0.8 mm 3 mps 734 mmHg 74%
10:00 +26°C° 0.8 mm 3 mps 734 mmHg 69%
11:00 +28°C° 0.8 mm 3 mps 734 mmHg 65%
12:00 +28°C° 1 mm 3 mps 733 mmHg 65%
13:00 +28°C° 1 mm 3 mps 733 mmHg 65%
14:00 +28°C° 0 mm 3 mps 733 mmHg 64%
15:00 +28°C° 0.8 mm 3 mps 733 mmHg 66%
16:00 +27°C° 0.8 mm 3 mps 733 mmHg 67%
17:00 +27°C° 0.8 mm 3 mps 732 mmHg 68%
18:00 +26°C° 0.1 mm 3 mps 732 mmHg 72%
19:00 +24°C° 0.1 mm 2 mps 732 mmHg 76%
20:00 +21°C° 0.1 mm 2 mps 732 mmHg 80%
21:00 +21°C° 0 mm 2 mps 732 mmHg 83%
22:00 +20°C° 0 mm 2 mps 732 mmHg 86%
23:00 +20°C° 0 mm 1 mps 732 mmHg 88%

Tomorrow, 9 August, Sunday

Time Temperature Precipitation Wind Pressure Humidity
00:00 +20°C° 0 mm 1 mps 732 mmHg 89%
01:00 +20°C° 0 mm 1 mps 733 mmHg 89%
02:00 +19°C° 0 mm 1 mps 733 mmHg 90%
03:00 +19°C° 0 mm 1 mps 732 mmHg 90%
04:00 +19°C° 0 mm 1 mps 732 mmHg 91%
05:00 +19°C° 0 mm 1 mps 732 mmHg 91%
06:00 +19°C° 0 mm 2 mps 732 mmHg 87%
07:00 +20°C° 0 mm 2 mps 732 mmHg 83%
08:00 +23°C° 0 mm 2 mps 732 mmHg 78%
09:00 +24°C° 0 mm 2 mps 732 mmHg 72%
10:00 +25°C° 0 mm 3 mps 732 mmHg 67%
11:00 +26°C° 0 mm 3 mps 732 mmHg 61%
12:00 +27°C° 0.1 mm 3 mps 732 mmHg 59%
13:00 +27°C° 0.1 mm 3 mps 732 mmHg 58%
14:00 +28°C° 0.1 mm 2 mps 731 mmHg 56%
15:00 +27°C° 0.2 mm 2 mps 731 mmHg 59%
16:00 +27°C° 0.2 mm 3 mps 731 mmHg 61%
17:00 +27°C° 0.2 mm 3 mps 731 mmHg 64%
18:00 +25°C° 0.2 mm 2 mps 731 mmHg 69%
19:00 +23°C° 0.2 mm 1 mps 731 mmHg 75%
20:00 +19°C° 0.2 mm 0 mps 731 mmHg 80%
21:00 +21°C° 0 mm 1 mps 731 mmHg 82%
22:00 +20°C° 0 mm 1 mps 731 mmHg 83%
23:00 +20°C° 0 mm 1 mps 731 mmHg 85%

Day after tomorrow, 10 August, Monday

Time Temperature Precipitation Wind Pressure Humidity
00:00 +20°C° 0 mm 1 mps 731 mmHg 86%
01:00 +19°C° 0 mm 1 mps 731 mmHg 87%
02:00 +19°C° 0 mm 1 mps 731 mmHg 88%
03:00 +19°C° 0 mm 1 mps 730 mmHg 89%
04:00 +18°C° 0 mm 1 mps 730 mmHg 90%
05:00 +18°C° 0 mm 1 mps 730 mmHg 90%
06:00 +20°C° 0 mm 1 mps 730 mmHg 85%
07:00 +22°C° 0 mm 1 mps 731 mmHg 80%
08:00 +23°C° 0 mm 1 mps 731 mmHg 75%
09:00 +25°C° 0 mm 1 mps 731 mmHg 69%
10:00 +26°C° 0 mm 1 mps 731 mmHg 63%
11:00 +27°C° 0 mm 1 mps 731 mmHg 57%
12:00 +28°C° 0.1 mm 1 mps 731 mmHg 55%
13:00 +28°C° 0.1 mm 1 mps 730 mmHg 53%
14:00 +28°C° 0.1 mm 1 mps 730 mmHg 52%
15:00 +28°C° 0.3 mm 1 mps 730 mmHg 55%
16:00 +28°C° 0.3 mm 1 mps 730 mmHg 58%
17:00 +27°C° 0.3 mm 1 mps 730 mmHg 61%
18:00 +25°C° 0.4 mm 1 mps 730 mmHg 66%
19:00 +24°C° 0.4 mm 1 mps 730 mmHg 70%
20:00 +20°C° 0.4 mm 0 mps 730 mmHg 75%
21:00 +19°C° 0 mm 0 mps 730 mmHg 77%
22:00 +21°C° 0 mm 1 mps 730 mmHg 79%
23:00 +20°C° 0 mm 1 mps 730 mmHg 81%

11 August, Tuesday

Time Temperature Precipitation Wind Pressure Humidity
00:00 +20°C° 0.2 mm 1 mps 730 mmHg 83%
01:00 +19°C° 0.2 mm 1 mps 730 mmHg 85%
02:00 +19°C° 0.2 mm 1 mps 730 mmHg 87%
03:00 +18°C° 0.2 mm 1 mps 730 mmHg 88%
04:00 +18°C° 0.2 mm 1 mps 730 mmHg 89%
05:00 +18°C° 0.2 mm 1 mps 730 mmHg 90%
06:00 +19°C° 0 mm 1 mps 730 mmHg 86%
07:00 +21°C° 0 mm 1 mps 730 mmHg 82%
08:00 +22°C° 0 mm 1 mps 730 mmHg 78%
09:00 +24°C° 0.1 mm 2 mps 731 mmHg 72%
10:00 +25°C° 0.1 mm 2 mps 731 mmHg 65%
11:00 +27°C° 0.1 mm 2 mps 731 mmHg 58%
12:00 +27°C° 0.1 mm 2 mps 731 mmHg 55%
13:00 +28°C° 0.1 mm 2 mps 731 mmHg 53%
14:00 +28°C° 0.1 mm 2 mps 730 mmHg 51%
15:00 +28°C° 0.1 mm 2 mps 730 mmHg 52%
16:00 +28°C° 0.1 mm 2 mps 730 mmHg 54%
17:00 +28°C° 0.1 mm 2 mps 730 mmHg 55%
18:00 +26°C° 0.2 mm 2 mps 730 mmHg 60%
19:00 +24°C° 0.2 mm 1 mps 730 mmHg 66%
20:00 +22°C° 0.2 mm 1 mps 730 mmHg 71%
21:00 +22°C° 0.2 mm 1 mps 730 mmHg 75%
22:00 +21°C° 0.2 mm 1 mps 730 mmHg 79%
23:00 +19°C° 0.2 mm 2 mps 730 mmHg 82%

12 August, Wednesday

Time Temperature Precipitation Wind Pressure Humidity
00:00 +18°C° 0.5 mm 2 mps 730 mmHg 86%
01:00 +18°C° 0.5 mm 2 mps 730 mmHg 89%
02:00 +17°C° 0.5 mm 2 mps 730 mmHg 92%
03:00 +17°C° 0.2 mm 2 mps 730 mmHg 92%
04:00 +17°C° 0.2 mm 2 mps 730 mmHg 93%
05:00 +17°C° 0.2 mm 2 mps 730 mmHg 93%
06:00 +18°C° 0.2 mm 2 mps 731 mmHg 91%
07:00 +19°C° 0.2 mm 2 mps 731 mmHg 88%
08:00 +20°C° 0.2 mm 3 mps 731 mmHg 85%
09:00 +22°C° 0.5 mm 3 mps 731 mmHg 80%
10:00 +24°C° 0.5 mm 3 mps 731 mmHg 74%
11:00 +25°C° 0.5 mm 3 mps 731 mmHg 68%
12:00 +25°C° 0.4 mm 3 mps 731 mmHg 66%
13:00 +26°C° 0.4 mm 3 mps 731 mmHg 64%
14:00 +26°C° 0.4 mm 3 mps 731 mmHg 62%
15:00 +26°C° 0.5 mm 3 mps 731 mmHg 64%
16:00 +25°C° 0.5 mm 3 mps 731 mmHg 67%
17:00 +25°C° 0.5 mm 3 mps 731 mmHg 69%
18:00 +23°C° 0.3 mm 2 mps 732 mmHg 74%
19:00 +20°C° 0.3 mm 2 mps 732 mmHg 79%
20:00 +18°C° 0.3 mm 2 mps 732 mmHg 84%
21:00 +18°C° 0 mm 2 mps 732 mmHg 84%
22:00 +18°C° 0 mm 1 mps 733 mmHg 85%
23:00 +18°C° 0 mm 1 mps 733 mmHg 85%

13 August, Thursday

Time Temperature Precipitation Wind Pressure Humidity
00:00 +18°C° 0 mm 1 mps 733 mmHg 84%
01:00 +16°C° 0 mm 1 mps 733 mmHg 83%
02:00 +15°C° 0 mm 0 mps 733 mmHg 83%
03:00 +14°C° 0 mm 0 mps 733 mmHg 84%
04:00 +14°C° 0 mm 0 mps 733 mmHg 85%
05:00 +13°C° 0 mm 0 mps 733 mmHg 86%
06:00 +14°C° 0 mm 0 mps 733 mmHg 82%
07:00 +16°C° 0 mm 1 mps 733 mmHg 78%
08:00 +19°C° 0 mm 1 mps 733 mmHg 74%
09:00 +20°C° 0 mm 1 mps 733 mmHg 69%
10:00 +20°C° 0 mm 2 mps 733 mmHg 64%
11:00 +21°C° 0 mm 2 mps 733 mmHg 59%
12:00 +23°C° 0 mm 2 mps 733 mmHg 58%
13:00 +24°C° 0 mm 2 mps 732 mmHg 56%
14:00 +25°C° 0 mm 2 mps 732 mmHg 54%
15:00 +25°C° 0 mm 2 mps 732 mmHg 55%
16:00 +25°C° 0 mm 2 mps 732 mmHg 55%
17:00 +25°C° 0 mm 2 mps 732 mmHg 56%
18:00 +23°C° 0 mm 1 mps 732 mmHg 60%
19:00 +21°C° 0 mm 1 mps 732 mmHg 65%
20:00 +19°C° 0 mm 1 mps 732 mmHg 69%
21:00 +18°C° 0 mm 1 mps 732 mmHg 70%
22:00 +18°C° 0 mm 1 mps 732 mmHg 70%
23:00 +15°C° 0 mm 0 mps 732 mmHg 71%
Show more